sat.trackr.live / text

‹ back to catalog

STARLINK-11306 [DTC]

NORAD 61254 · 2024-175M

PAYLOAD ACTIVE UNKNOWN

§ Identity

Operator
Country
US
Launch date
2024-09-25
Launch site
AFWTR
Launch vehicle
Mass (kg)
RCS (m²)

Purposes: comms

External: N2YO · Heavens-Above · Gunter

§ Orbital elements

Epoch: 2026-09-21T00:30:18.173952Z

Period
91.74 min
Inclination
53.1585°
Eccentricity
0.0001197
Mean motion
15.69707373 rev/d
Perigee alt
358.9 km
Apogee alt
360.5 km
Semi-major
6,737.9 km
B*
5.5776e-6
RAAN
173.4829°
Arg perigee
85.4147°
Mean anomaly
274.7007°
Rev number
11,524

§ Raw data

STARLINK-11306 [DTC]1 61254U 24175M   26264.02104368  .00000087  00000+0  55776-5 0  99902 61254  53.1585 173.4829 0001197  85.4147 274.7007 15.69707373115246

JSON: /api/v1/satellites/61254 · /tle

For live sub-satellite position, see the globe view (requires WebGL).

§ Visibility from observer

Set your observer location to see the next 7 days of passes ≥ 10°. The values pass through the URL so the page stays shareable.

No JS? Fill the form by hand. The geolocation button needs JavaScript.